Location: Newark
(50.4348°N, 30.5552°E)
Time: 00:31:26
(UTC+00:00)

Tiros 1 despin weight - Pass Details

Date: 27 January 2020
Orbit: 594 x 642 km, 48.2° (Epoch: 24 February)

Event Time Altitude Azimuth Distance (km) Brightness Sun altitude
Rises 10:14:55 0° 250° (WSW) 2,865 ? 21.0°
Reaches altitude 10° 10:17:13 10° 247° (WSW) 1,969 ? 21.0°
Maximum altitude 10:21:40 59° 168° (SSE) 719 ? 21.0°
Drops below altitude 10° 10:26:12 10° 90° (E) 2,003 ? 20.9°
Sets 10:28:34 0° 86° (E) 2,919 ? 20.9°
